Location: Forestville
(38.4740°N, 122.8890°W)
Time: 08:10:24
(UTC-07:00)

Amateur Radio Satellites - All Passes

Search period start: 18 April 2015 07:40
Search period end: 19 April 2015 07:40
Location: Forestville, 38.4740°N, 122.8890°W

Satellite Date Start Highest point End Downlink Frequencies (MHz)
Time Altitude Azimuth
STRAND 1 18 Apr 07:44:11 07:49:13 58° 259° (W) 07:54:17 437.568
CUBESAT XI-V 18 Apr 07:46:29 07:50:23 25° 266° (W) 07:54:12 437.345
AIST 2 18 Apr 07:57:33 07:59:12 12° 319° (NW) 08:00:42 435.215
DANDE 18 Apr 08:10:25 08:12:43 11° 273° (W) 08:14:27 436.750
AO-7 18 Apr 08:20:28 08:21:34 10° 314° (NW) 08:22:07 29.400- 29.500
BRITE-PL 18 Apr 08:49:08 08:53:25 31° 96° (E) 08:58:03 437.365/2234.400
DOVE 4 18 Apr 08:59:19 09:02:33 18° 91° (E) 09:06:04 437.250
SRMSAT 18 Apr 08:59:53 09:01:59 12° 182° (S) 09:04:04 437.500
CUTE-I 18 Apr 09:06:32 09:09:45 16° 296° (WNW) 09:12:44 437.470
CINEMA 3 18 Apr 09:10:07 09:10:56 11° 87° (E) 09:12:08 145.822/145.860
Cubesat XI-IV 18 Apr 09:14:04 09:16:44 14° 298° (WNW) 09:19:07 437.490
Cosmos 2499 18 Apr 09:14:30 09:18:44 15° 281° (W) 09:22:19 435.465 / 435.565
GOMX 1 18 Apr 09:19:10 09:23:49 41° 98° (E) 09:28:46 467.674
HO-68 18 Apr 09:19:49 09:26:22 38° 97° (E) 09:32:58 435.675
O/OREOS (USA 219) 18 Apr 09:25:37 09:28:57 20° 58° (ENE) 09:32:21 437.305
COMPASS 1 18 Apr 09:29:41 09:33:03 23° 94° (E) 09:36:28 437.405
CANX-2 18 Apr 09:35:49 09:39:58 47° 98° (E) 09:44:06 2200.000
SEEDS 18 Apr 09:41:36 09:45:37 40° 98° (E) 09:49:37 437.485
CUTE 1.7 + AOD 2 18 Apr 09:46:12 09:50:26 56° 100° (E) 09:54:38 437.475
TIGRISAT 18 Apr 09:50:44 09:52:55 14° 65° (ENE) 09:55:20 435.000
UNISAT 6 18 Apr 09:50:59 09:53:20 15° 65° (ENE) 09:55:54 437.425
CUBEBUG 2 18 Apr 10:02:57 10:06:26 21° 92° (E) 10:10:05 437.445
ZACube-1 18 Apr 10:05:21 10:07:31 14° 89° (E) 10:09:57 437.345
Cosmos 2491 18 Apr 10:07:18 10:14:30 28° 68° (ENE) 10:21:57 435.465 / 435.565
PCSat 18 Apr 10:14:52 10:20:07 54° 114° (ESE) 10:25:26 145.827
AAUSAT CUBESAT 2 18 Apr 10:18:42 10:22:56 78° 101° (E) 10:27:06 437.432
POLYITAN 1 18 Apr 10:21:21 10:23:32 14° 67° (ENE) 10:25:53 437.675
Oscar 11 18 Apr 10:22:54 10:26:57 37° 97° (E) 10:31:00 145.826/435.025
BRITE-PL 18 Apr 10:27:46 10:31:52 28° 289° (WNW) 10:36:10 437.365/2234.400
ANTELSAT 18 Apr 10:30:42 10:34:46 38° 72° (ENE) 10:39:01 437.575/2403.000
DUCHIFAT 1 18 Apr 10:32:06 10:34:51 18° 68° (ENE) 10:37:46 145.980
DOVE 4 18 Apr 10:35:47 10:40:33 50° 286° (WNW) 10:45:32 437.250
DX 1 18 Apr 10:42:55 10:46:07 20° 94° (E) 10:49:26 434.975-435.025
QB50P1 18 Apr 10:43:29 10:46:51 24° 70° (ENE) 10:50:19 145.935-145.965
CINEMA 3 18 Apr 10:43:50 10:48:44 78° 284° (WNW) 10:53:44 145.822/145.860
UWE-3 18 Apr 10:45:57 10:50:29 48° 99° (E) 10:55:01 435.000/436.395/437.385
DELFI C3 18 Apr 10:47:35 10:51:35 54° 100° (E) 10:55:33 145.870
GOMX 1 18 Apr 10:57:58 11:01:45 22° 291° (WNW) 11:05:35 467.674
BUGSAT 1 18 Apr 11:03:27 11:06:51 27° 71° (ENE) 11:10:19 437.445
O/OREOS (USA 219) 18 Apr 11:04:23 11:08:31 36° 255° (WSW) 11:12:36 437.305
COMPASS 1 18 Apr 11:05:09 11:08:44 26° 289° (WNW) 11:12:13 437.405
QB50P2 18 Apr 11:05:49 11:09:48 45° 73° (ENE) 11:13:52 145.880/145.840
HUMSAT D 18 Apr 11:06:10 11:09:57 29° 96° (E) 11:13:46 437.325/437.525
HO-68 18 Apr 11:07:30 11:14:07 40° 294° (WNW) 11:20:36 435.675
CANX-2 18 Apr 11:13:06 11:15:33 15° 293° (WNW) 11:17:49 2200.000
YUBILEINY 18 Apr 11:14:31 11:21:59 34° 86° (E) 11:29:41 435.215
VELOX 1 18 Apr 11:17:07 11:20:30 22° 94° (E) 11:24:01 145.980
FUNcube-1 18 Apr 11:17:41 11:22:18 85° 105° (ESE) 11:26:55 145.935
SEEDS 18 Apr 11:18:23 11:21:08 16° 292° (WNW) 11:23:43 437.485
CUTE 1.7 + AOD 2 18 Apr 11:24:02 11:25:55 12° 294° (WNW) 11:27:37 437.475
TIGRISAT 18 Apr 11:24:54 11:29:13 54° 261° (W) 11:33:40 435.000
UNISAT 6 18 Apr 11:25:24 11:29:42 52° 261° (W) 11:34:09 437.425
POPSAT HIP 1 18 Apr 11:28:59 11:33:11 84° 79° (E) 11:37:25 437.405
NANOSAT C BR1 18 Apr 11:29:36 11:33:48 85° 76° (ENE) 11:38:02 145.865
AISAT 18 Apr 11:31:09 11:35:08 33° 97° (E) 11:39:11 437.250
UKube-1 18 Apr 11:36:54 11:41:14 81° 103° (ESE) 11:45:34 .
CUBEBUG 2 18 Apr 11:38:53 11:43:16 38° 288° (WNW) 11:47:38 437.445
ZACube-1 18 Apr 11:39:46 11:44:16 54° 286° (WNW) 11:48:45 437.345
ESTCUBE 1 18 Apr 11:41:47 11:45:15 22° 94° (E) 11:48:50 437.505/2401.250
CUBEBUG 1 18 Apr 11:46:44 11:50:04 22° 94° (E) 11:53:30 437.445
POLYITAN 1 18 Apr 11:55:03 11:59:06 46° 261° (W) 12:03:11 437.675
PCSat 18 Apr 11:59:42 12:03:56 22° 312° (NW) 12:08:04 145.827
Oscar 11 18 Apr 11:59:51 12:02:53 18° 292° (WNW) 12:05:47 145.826/435.025
Cosmos 2491 18 Apr 12:03:22 12:12:01 61° 268° (W) 12:20:36 435.465 / 435.565
DUCHIFAT 1 18 Apr 12:06:37 12:10:28 35° 263° (W) 12:14:19 145.980
50 SAT 18 Apr 12:08:30 12:12:36 81° 284° (WNW) 12:16:38 437.505
ANTELSAT 18 Apr 12:08:38 12:11:46 18° 269° (W) 12:14:49 437.575/2403.000
DX 1 18 Apr 12:18:33 12:22:27 32° 289° (WNW) 12:26:18 434.975-435.025
QB50P1 18 Apr 12:19:10 12:22:41 25° 265° (W) 12:26:08 145.935-145.965
UWE-3 18 Apr 12:23:37 12:26:40 17° 293° (WNW) 12:29:32 435.000/436.395/437.385
DELFI C3 18 Apr 12:24:55 12:26:19 11° 294° (WNW) 12:27:30 145.870
BUGSAT 1 18 Apr 12:39:17 12:42:22 20° 266° (W) 12:45:21 437.445
HUMSAT D 18 Apr 12:42:08 12:45:35 23° 290° (WNW) 12:48:55 437.325/437.525
QB50P2 18 Apr 12:43:48 12:46:02 14° 270° (W) 12:48:03 145.880/145.840
BEESAT 2 18 Apr 12:52:45 12:53:23 10° 40° (NE) 12:54:12 435.950
VELOX 1 18 Apr 12:53:13 12:57:08 31° 290° (WNW) 13:01:00 145.980
BEESAT 3 18 Apr 13:00:36 13:02:47 14° 43° (NE) 13:05:05 437.485
AISAT 18 Apr 13:08:10 13:11:35 21° 292° (WNW) 13:14:53 437.250
SO-50 18 Apr 13:09:46 13:13:22 23° 112° (ESE) 13:17:10 436.795
YUBILEINY 18 Apr 13:10:01 13:18:33 50° 284° (WNW) 13:27:03 435.215
Cosmos 2504 18 Apr 13:17:40 13:22:59 19° 81° (E) 13:28:51 435.465 / 435.565
AIST 1 18 Apr 13:18:09 13:22:25 74° 82° (E) 13:26:40
ESTCUBE 1 18 Apr 13:18:13 13:22:11 31° 289° (WNW) 13:26:06 437.505/2401.250
Oscar 19 18 Apr 13:19:31 13:24:15 40° 71° (ENE) 13:29:06 437.125/150
Gurwin Techsat 1B 18 Apr 13:22:00 13:23:30 11° 61° (ENE) 13:25:19 435.225
CUBEBUG 1 18 Apr 13:22:40 13:26:29 30° 289° (WNW) 13:30:14 437.445
ITAMSAT 1 18 Apr 13:37:32 13:41:03 19° 65° (ENE) 13:44:45 435.822/435.867
SPROUT 18 Apr 13:38:34 13:42:54 76° 284° (WNW) 13:47:12 437.525
TISAT 1 18 Apr 13:39:06 13:43:21 87° 97° (E) 13:47:37 437.305
BEESAT 18 Apr 13:42:41 13:44:52 13° 90° (E) 13:47:20 436.000
SWISSCUBE 18 Apr 13:43:25 13:46:02 15° 90° (E) 13:48:53 437.505
BEESAT 2 18 Apr 14:28:05 14:32:14 87° 59° (ENE) 14:36:18 435.950
BEESAT 3 18 Apr 14:37:12 14:41:15 61° 242° (WSW) 14:45:12 437.485
AIST 2 18 Apr 14:39:05 14:43:01 36° 53° (NE) 14:46:54 435.215
ITUPSAT 1 18 Apr 14:42:20 14:47:03 58° 101° (E) 14:51:44 437.325
SO-50 18 Apr 14:49:21 14:53:42 38° 308° (NW) 14:58:12 436.795
JAS-2 18 Apr 14:55:41 15:00:57 21° 61° (ENE) 15:06:31 435.910
Gurwin Techsat 1B 18 Apr 14:57:30 15:02:49 89° 238° (WSW) 15:08:10 435.225
ISS 18 Apr 14:58:25 15:01:36 56° 138° (SE) 15:04:49 145.825
Oscar 19 18 Apr 14:59:47 15:03:48 22° 267° (W) 15:07:42 437.125/150
Cosmos 2504 18 Apr 15:06:40 15:15:30 86° 277° (W) 15:24:26 435.465 / 435.565
ITAMSAT 1 18 Apr 15:15:11 15:20:14 50° 260° (W) 15:25:16 435.822/435.867
BEESAT 18 Apr 15:18:29 15:23:10 57° 286° (WNW) 15:27:49 436.000
SWISSCUBE 18 Apr 15:19:39 15:24:17 51° 287° (WNW) 15:28:52 437.505
STARS 18 Apr 15:25:24 15:28:27 19° 93° (E) 15:31:38 437.465
HORYU 2 18 Apr 15:26:29 15:30:31 35° 71° (ENE) 15:34:38 437.375
AO-7 18 Apr 15:27:33 15:35:06 42° 64° (ENE) 15:42:47 29.400- 29.500
RS-15 18 Apr 15:36:41 15:47:00 53° 112° (ESE) 15:57:35 29.354- 29.394
KKS-1 18 Apr 15:46:44 15:51:06 52° 100° (E) 15:55:29 437.445
AIST 2 18 Apr 16:18:17 16:21:23 19° 249° (WSW) 16:24:20 435.215
ITUPSAT 1 18 Apr 16:21:49 16:24:31 15° 295° (WNW) 16:27:00 437.325
ISS 18 Apr 16:35:42 16:38:12 20° 335° (NNW) 16:40:41 145.825
JAS-2 18 Apr 16:37:24 16:45:10 85° 257° (WSW) 16:53:04 435.910
MOZHAYETS 4 18 Apr 16:53:31 16:56:27 17° 91° (E) 16:59:32
STARS 18 Apr 17:00:57 17:05:04 37° 288° (WNW) 17:09:08 437.465
HORYU 2 18 Apr 17:03:57 17:07:17 20° 267° (W) 17:10:32 437.375
Cosmos 2504 18 Apr 17:04:42 17:10:29 18° 299° (WNW) 17:15:46 435.465 / 435.565
CUTE-I 18 Apr 17:09:38 17:11:12 12° 61° (ENE) 17:13:05 437.470
Cubesat XI-IV 18 Apr 17:15:50 17:18:18 14° 62° (ENE) 17:21:01 437.490
AO-7 18 Apr 17:20:09 17:27:56 42° 261° (W) 17:35:37 29.400- 29.500
KKS-1 18 Apr 17:24:50 17:27:21 15° 294° (WNW) 17:29:42 437.445
GONETS M04 18 Apr 17:31:00 17:39:23 56° 91° (E) 17:47:57
RS-15 18 Apr 17:49:18 17:59:39 45° 315° (NW) 18:10:09 29.354- 29.394
Cosmos 2499 18 Apr 18:04:17 18:07:47 14° 79° (ENE) 18:12:01 435.465 / 435.565
CUSAT 1 18 Apr 18:07:05 18:09:12 18° 88° (E) 18:11:44 437.405
JAS-2 18 Apr 18:26:48 18:31:20 15° 275° (W) 18:35:22 435.910
MOZHAYETS 4 18 Apr 18:29:34 18:33:56 42° 287° (WNW) 18:38:13
CUTE-I 18 Apr 18:45:16 18:50:37 89° 245° (WSW) 18:55:59 437.470
PRISM 18 Apr 18:51:29 18:53:12 13° 91° (E) 18:55:09 437.425
Cubesat XI-IV 18 Apr 18:52:29 18:57:50 76° 257° (WSW) 19:03:12 437.490
AUBIESAT-1 18 Apr 18:57:19 19:01:13 32° 100° (E) 19:04:52 437.475
VERMONT LUNAR 18 Apr 19:03:52 19:05:21 12° 145° (SE) 19:06:55 437.305
PCSat 18 Apr 19:04:23 19:09:14 33° 53° (NE) 19:14:07 145.827
GONETS M04 18 Apr 19:29:12 19:36:46 30° 291° (WNW) 19:44:10
DANDE 18 Apr 19:37:38 19:40:06 26° 288° (WNW) 19:42:58 436.750
M-CUBED/EXP-1 PRIME 18 Apr 19:41:54 19:46:21 65° 290° (WNW) 19:50:25 437.505
CUBESAT XI-V 18 Apr 19:43:39 19:48:16 89° 93° (E) 19:52:53 437.345
HO-68 18 Apr 19:47:45 19:53:17 26° 62° (ENE) 19:59:01 435.675
CUSAT 1 18 Apr 19:50:10 19:52:02 14° 295° (WNW) 19:53:58 437.405
Cosmos 2499 18 Apr 19:50:58 19:59:45 77° 95° (E) 20:08:35 435.465 / 435.565
ISS 18 Apr 19:52:06 19:53:12 11° 15° (NNE) 19:54:20 145.825
PHONESAT 2.4 18 Apr 19:53:12 19:54:26 12° 144° (SE) 19:55:47 2401.200-2431.200
STRAND 1 18 Apr 19:56:08 20:01:07 53° 100° (E) 20:06:06 437.568
BRITE-PL 18 Apr 19:59:55 20:03:18 25° 71° (ENE) 20:06:45 437.365/2234.400
DOVE 4 18 Apr 20:05:43 20:07:17 12° 65° (ENE) 20:09:06 437.250
RS-15 18 Apr 20:08:56 20:16:07 18° 347° (NNW) 20:23:14 29.354- 29.394
COMPASS 1 18 Apr 20:20:47 20:23:02 15° 67° (ENE) 20:25:28 437.405
PRISM 18 Apr 20:25:03 20:29:00 45° 287° (WNW) 20:32:54 437.425
GOMX 1 18 Apr 20:27:01 20:30:41 32° 72° (ENE) 20:34:27 467.674
CANX-2 18 Apr 20:27:37 20:31:16 28° 71° (ENE) 20:35:00 2200.000
AUBIESAT-1 18 Apr 20:32:25 20:35:49 22° 298° (WNW) 20:38:56 437.475
SEEDS 18 Apr 20:32:42 20:36:06 24° 70° (ENE) 20:39:36 437.485
CUTE 1.7 + AOD 2 18 Apr 20:37:47 20:41:36 33° 72° (ENE) 20:45:30 437.475
VERMONT LUNAR 18 Apr 20:39:08 20:42:28 57° 159° (SSE) 20:45:49 437.305
PCSat 18 Apr 20:47:47 20:52:39 33° 250° (WSW) 20:57:24 145.827
CUBEBUG 2 18 Apr 21:01:21 21:03:27 14° 66° (ENE) 21:05:47 437.445
AAUSAT CUBESAT 2 18 Apr 21:08:04 21:12:01 42° 74° (ENE) 21:16:03 437.432
Oscar 11 18 Apr 21:16:38 21:20:09 25° 70° (ENE) 21:23:47 145.826/435.025
ISS 18 Apr 21:27:10 21:30:16 41° 33° (NNE) 21:33:23 145.825
YUBILEINY 18 Apr 21:27:44 21:31:45 14° 58° (ENE) 21:36:22 435.215
PHONESAT 2.4 18 Apr 21:28:45 21:32:15 52° 157° (SSE) 21:35:44 2401.200-2431.200
HO-68 18 Apr 21:33:27 21:40:33 61° 258° (WSW) 21:47:41 435.675
DELFI C3 18 Apr 21:34:04 21:37:32 28° 71° (ENE) 21:41:04 145.870
STRAND 1 18 Apr 21:36:33 21:39:57 18° 295° (WNW) 21:43:11 437.568
DX 1 18 Apr 21:38:02 21:40:35 16° 67° (ENE) 21:43:19 434.975-435.025
BRITE-PL 18 Apr 21:38:34 21:41:53 22° 266° (W) 21:45:06 437.365/2234.400
DOVE 4 18 Apr 21:40:36 21:44:39 52° 261° (W) 21:48:48 437.250
UWE-3 18 Apr 21:42:08 21:45:52 31° 71° (ENE) 21:49:46 435.000/436.395/437.385
SO-50 18 Apr 21:42:16 21:45:42 19° 43° (NE) 21:49:15 436.795
CINEMA 3 18 Apr 21:44:28 21:48:40 81° 75° (ENE) 21:53:02 145.822/145.860
Cosmos 2499 18 Apr 21:47:04 21:53:55 23° 295° (WNW) 22:00:23 435.465 / 435.565
COMPASS 1 18 Apr 21:54:19 21:58:22 45° 261° (W) 22:02:29 437.405
HUMSAT D 18 Apr 21:57:33 22:00:18 18° 68° (ENE) 22:03:14 437.325/437.525
CANX-2 18 Apr 22:03:47 22:07:12 22° 266° (W) 22:10:35 2200.000
GOMX 1 18 Apr 22:06:07 22:09:00 18° 268° (W) 22:11:47 467.674
SEEDS 18 Apr 22:08:13 22:11:50 26° 265° (W) 22:15:25 437.485
FUNcube-1 18 Apr 22:12:04 22:16:12 53° 74° (ENE) 22:20:28 145.935
VELOX 1 18 Apr 22:14:10 22:17:00 18° 67° (ENE) 22:20:00 145.980
CUTE 1.7 + AOD 2 18 Apr 22:14:30 22:17:38 19° 268° (W) 22:20:40 437.475
VERMONT LUNAR 18 Apr 22:16:41 22:20:03 61° 354° (N) 22:23:24 437.305
RS-15 18 Apr 22:26:25 22:34:25 22° 22° (NNE) 22:42:57 29.354- 29.394
AISAT 18 Apr 22:28:03 22:31:37 25° 69° (ENE) 22:35:17 437.250
UKube-1 18 Apr 22:30:14 22:34:27 56° 74° (ENE) 22:38:42 .
ZACube-1 18 Apr 22:34:08 22:38:22 82° 256° (WSW) 22:42:46 437.345
CUBEBUG 2 18 Apr 22:35:38 22:39:44 50° 261° (W) 22:44:00 437.445
ESTCUBE 1 18 Apr 22:40:40 22:43:44 19° 68° (ENE) 22:46:57 437.505/2401.250
CUBEBUG 1 18 Apr 22:42:27 22:45:04 16° 67° (ENE) 22:47:50 437.445
AAUSAT CUBESAT 2 18 Apr 22:45:28 22:47:55 15° 269° (W) 22:50:11 437.432
50 SAT 18 Apr 22:52:33 22:56:20 45° 74° (ENE) 23:00:12 437.505
Oscar 11 18 Apr 22:52:35 22:56:17 26° 265° (W) 22:59:56 145.826/435.025
ISS 18 Apr 23:04:07 23:06:27 18° 229° (SW) 23:08:44 145.825
PHONESAT 2.4 18 Apr 23:06:57 23:10:31 65° 353° (N) 23:14:05 2401.200-2431.200
Cosmos 2491 18 Apr 23:07:00 23:14:21 33° 86° (E) 23:21:58 435.465 / 435.565
DELFI C3 18 Apr 23:09:34 23:12:43 21° 267° (W) 23:15:46 145.870
DX 1 18 Apr 23:12:23 23:16:32 43° 261° (W) 23:20:41 434.975-435.025
POPSAT HIP 1 18 Apr 23:17:01 23:19:29 15° 91° (E) 23:22:08 437.405
NANOSAT C BR1 18 Apr 23:17:23 23:19:50 15° 91° (E) 23:22:29 145.865
TIGRISAT 18 Apr 23:18:08 23:22:27 35° 97° (E) 23:26:46 435.000
UNISAT 6 18 Apr 23:18:49 23:23:12 37° 97° (E) 23:27:34 437.425
UWE-3 18 Apr 23:19:17 23:22:31 20° 268° (W) 23:25:42 435.000/436.395/437.385
YUBILEINY 18 Apr 23:21:37 23:30:27 77° 82° (E) 23:39:10 435.215
SO-50 18 Apr 23:21:50 23:26:44 63° 242° (WSW) 23:31:34 436.795
HUMSAT D 18 Apr 23:31:59 23:35:50 35° 263° (W) 23:39:44 437.325/437.525
O/OREOS (USA 219) 18 Apr 23:36:01 23:39:57 29° 104° (ESE) 23:43:58 437.305
POLYITAN 1 18 Apr 23:42:04 23:45:53 30° 96° (E) 23:49:44 437.675
VELOX 1 18 Apr 23:49:09 23:53:18 40° 262° (W) 23:57:27 145.980
FUNcube-1 18 Apr 23:51:20 23:52:59 12° 272° (W) 23:54:24 145.935
DUCHIFAT 1 18 Apr 23:52:33 23:56:33 38° 98° (E) 00:00:34 145.980
VERMONT LUNAR 18 Apr 23:54:23 23:57:46 76° 14° (NNE) 00:01:07 437.305
ANTELSAT 19 Apr 00:00:18 00:05:03 79° 285° (WNW) 00:09:45 437.575/2403.000
AISAT 19 Apr 00:04:25 00:08:10 26° 265° (W) 00:11:52 437.250
QB50P1 19 Apr 00:04:52 00:09:05 56° 100° (E) 00:13:17 145.935-145.965
UKube-1 19 Apr 00:09:28 00:11:01 11° 270° (W) 00:12:19 .
ESTCUBE 1 19 Apr 00:16:06 00:20:22 39° 262° (W) 00:24:36 437.505/2401.250
CUBEBUG 1 19 Apr 00:17:01 00:21:09 42° 262° (W) 00:25:16 437.445
BUGSAT 1 19 Apr 00:21:38 00:25:42 59° 101° (E) 00:29:48 437.445
QB50P2 19 Apr 00:28:06 00:32:24 76° 284° (WNW) 00:36:41 145.880/145.840
TISAT 1 19 Apr 00:29:51 00:33:54 52° 74° (ENE) 00:38:00 437.305
50 SAT 19 Apr 00:29:52 00:31:30 12° 270° (W) 00:32:56 437.505
SPROUT 19 Apr 00:31:07 00:35:21 68° 76° (ENE) 00:39:37 437.525
RS-15 19 Apr 00:38:48 00:50:07 59° 51° (NE) 01:01:59 29.354- 29.394
PHONESAT 2.4 19 Apr 00:45:24 00:48:58 74° 10° (N) 00:52:31 2401.200-2431.200
BEESAT 19 Apr 00:48:12 00:50:41 15° 65° (ENE) 00:53:22 436.000
SWISSCUBE 19 Apr 00:49:02 00:51:50 16° 65° (ENE) 00:54:51 437.505
POPSAT HIP 1 19 Apr 00:51:33 00:55:36 41° 287° (WNW) 00:59:38 437.405
NANOSAT C BR1 19 Apr 00:51:54 00:55:55 41° 287° (WNW) 00:59:56 145.865
TIGRISAT 19 Apr 00:55:18 00:59:00 23° 292° (WNW) 01:02:35 435.000
UNISAT 6 19 Apr 00:56:08 00:59:45 22° 292° (WNW) 01:03:15 437.425
Cosmos 2491 19 Apr 01:02:33 01:10:58 50° 284° (WNW) 01:19:22 435.465 / 435.565
Cosmos 2504 19 Apr 01:02:58 01:10:06 32° 70° (ENE) 01:16:56 435.465 / 435.565
O/OREOS (USA 219) 19 Apr 01:15:31 01:19:23 25° 300° (WNW) 01:23:10 437.305
POLYITAN 1 19 Apr 01:18:20 01:21:39 21° 291° (WNW) 01:24:53 437.675
YUBILEINY 19 Apr 01:20:20 01:26:24 20° 278° (W) 01:32:00 435.215
DUCHIFAT 1 19 Apr 01:29:16 01:32:07 17° 292° (WNW) 01:34:50 145.980
VERMONT LUNAR 19 Apr 01:32:08 01:35:09 31° 208° (SSW) 01:38:09 437.305
Oscar 19 19 Apr 01:33:40 01:36:42 16° 90° (E) 01:39:59 437.125/150
QB50P1 19 Apr 01:42:37 01:44:32 12° 294° (WNW) 01:46:15 145.935-145.965
AIST 1 19 Apr 01:46:00 01:50:09 46° 93° (E) 01:54:18
ITUPSAT 1 19 Apr 01:47:37 01:52:19 57° 73° (ENE) 01:57:03 437.325
BUGSAT 1 19 Apr 01:59:34 02:00:46 11° 294° (WNW) 02:01:44 437.445
TISAT 1 19 Apr 02:08:30 02:10:05 12° 270° (W) 02:11:24 437.305
STARS 19 Apr 02:22:01 02:24:18 15° 66° (ENE) 02:26:47 437.465
BEESAT 19 Apr 02:23:22 02:28:06 59° 259° (W) 02:32:51 436.000
PHONESAT 2.4 19 Apr 02:23:49 02:27:08 36° 206° (SSW) 02:30:25 2401.200-2431.200
SWISSCUBE 19 Apr 02:24:39 02:29:19 53° 260° (W) 02:34:01 437.505
KKS-1 19 Apr 02:43:35 02:47:41 39° 72° (ENE) 02:51:50 437.445
RS-15 19 Apr 02:51:42 03:02:21 42° 251° (WSW) 03:13:06 29.354- 29.394
Cosmos 2504 19 Apr 02:56:06 03:03:54 48° 270° (W) 03:11:03 435.465 / 435.565
Oscar 19 19 Apr 03:11:24 03:16:29 56° 287° (WNW) 03:21:34 437.125/150
Gurwin Techsat 1B 19 Apr 03:15:25 03:20:24 41° 98° (E) 03:25:24 435.225
AIST 1 19 Apr 03:25:54 03:28:09 13° 290° (WNW) 03:30:11
ITUPSAT 1 19 Apr 03:28:05 03:30:39 14° 270° (W) 03:32:58 437.325
ITAMSAT 1 19 Apr 03:29:18 03:34:27 65° 101° (ESE) 03:39:35 435.822/435.867
AO-7 19 Apr 03:33:55 03:36:23 12° 86° (E) 03:39:38 29.400- 29.500
GONETS M04 19 Apr 03:43:40 03:50:33 26° 66° (ENE) 03:57:43
JAS-2 19 Apr 03:52:48 03:55:45 14° 83° (E) 03:58:58 435.910
MOZHAYETS 4 19 Apr 03:54:50 03:57:21 15° 66° (ENE) 04:00:04
STARS 19 Apr 03:56:09 04:00:24 49° 261° (W) 04:04:40 437.465
BEESAT 2 19 Apr 04:21:24 04:24:36 23° 113° (ESE) 04:27:55 435.950
KKS-1 19 Apr 04:21:31 04:24:31 17° 268° (W) 04:27:23 437.445
BEESAT 3 19 Apr 04:29:03 04:32:43 33° 115° (ESE) 04:36:28 437.485
DANDE 19 Apr 04:33:09 04:38:10 22° 70° (ENE) 04:44:14 436.750
AIST 2 19 Apr 04:38:46 04:39:41 11° 109° (ESE) 04:40:53 435.215
CUSAT 1 19 Apr 04:41:39 04:47:46 33° 73° (ENE) 04:54:57 437.405
HORYU 2 19 Apr 04:55:13 04:59:46 88° 103° (ESE) 05:04:16 437.375
M-CUBED/EXP-1 PRIME 19 Apr 04:55:42 04:58:15 15° 59° (ENE) 05:01:02 437.505
Gurwin Techsat 1B 19 Apr 04:55:56 05:00:11 24° 293° (WNW) 05:04:17 435.225
ITAMSAT 1 19 Apr 05:10:29 05:13:29 15° 296° (WNW) 05:16:15 435.822/435.867
JUGNU 19 Apr 05:16:11 05:17:00 10° 173° (S) 05:17:52 437.505
AO-7 19 Apr 05:22:26 05:30:46 74° 105° (ESE) 05:39:06 29.400- 29.500
MOZHAYETS 4 19 Apr 05:29:38 05:34:11 54° 261° (W) 05:38:45
JAS-2 19 Apr 05:35:14 05:42:00 80° 285° (WNW) 05:47:55 435.910
GONETS M04 19 Apr 05:39:27 05:48:14 67° 267° (W) 05:56:55
AUBIESAT-1 19 Apr 05:42:58 05:47:15 38° 67° (ENE) 05:51:43 437.475
Cosmos 2499 19 Apr 05:46:09 05:52:09 23° 65° (ENE) 05:58:05 435.465 / 435.565
BEESAT 2 19 Apr 05:58:54 06:02:36 30° 309° (NW) 06:06:18 435.950
BEESAT 3 19 Apr 06:07:34 06:10:50 22° 312° (NW) 06:14:04 437.485
AIST 2 19 Apr 06:13:34 06:17:48 66° 302° (WNW) 06:22:05 435.215
DANDE 19 Apr 06:15:01 06:21:48 71° 263° (W) 06:30:02 436.750
CUSAT 1 19 Apr 06:23:53 06:30:41 51° 265° (W) 06:38:29 437.405
M-CUBED/EXP-1 PRIME 19 Apr 06:27:56 06:32:34 66° 255° (WSW) 06:37:25 437.505
CUBESAT XI-V 19 Apr 06:45:22 06:50:00 73° 77° (ENE) 06:54:39 437.345
SRMSAT 19 Apr 06:59:36 07:00:48 11° 173° (S) 07:02:03 437.500
JUGNU 19 Apr 07:03:18 07:05:07 11° 183° (S) 07:06:55 437.505
CUTE-I 19 Apr 07:04:06 07:09:05 41° 98° (E) 07:14:05 437.470
STRAND 1 19 Apr 07:10:29 07:15:33 67° 75° (ENE) 07:20:39 437.568
Cubesat XI-IV 19 Apr 07:11:23 07:16:30 48° 99° (E) 07:21:39 437.490
PRISM 19 Apr 07:13:21 07:17:32 79° 257° (WSW) 07:21:44 437.425
AO-7 19 Apr 07:16:26 07:22:53 25° 303° (WNW) 07:29:06 29.400- 29.500
AUBIESAT-1 19 Apr 07:18:25 07:22:08 23° 263° (W) 07:25:52 437.475
JAS-2 19 Apr 07:22:58 07:25:54 13° 304° (NW) 07:28:22 435.910
